TimeCDT,TemperatureF,Dew PointF,Humidity,Sea Level PressureIn,VisibilityMPH,Wind Direction,Wind SpeedMPH,Gust SpeedMPH,PrecipitationIn,Events,Conditions,WindDirDegrees,DateUTC
12:52 AM,69.1,54.0,58,30.04,10.0,SE,12.7,-,N/A,,Clear,130,2013-08-23 05:52:00
1:52 AM,68.0,55.9,65,30.01,10.0,SE,11.5,-,N/A,,Mostly Cloudy,130,2013-08-23 06:52:00
2:52 AM,69.1,57.9,68,30.01,10.0,SE,12.7,-,N/A,,Partly Cloudy,140,2013-08-23 07:52:00
3:52 AM,68.0,59.0,73,30.00,10.0,SE,11.5,-,N/A,,Clear,140,2013-08-23 08:52:00
4:52 AM,66.9,60.1,79,29.99,10.0,SE,11.5,-,N/A,,Clear,130,2013-08-23 09:52:00
5:52 AM,66.0,61.0,84,29.98,10.0,SE,11.5,-,N/A,,Clear,140,2013-08-23 10:52:00
6:52 AM,64.9,61.0,87,29.96,10.0,SE,11.5,-,N/A,,Clear,130,2013-08-23 11:52:00
7:52 AM,66.0,63.0,90,29.97,10.0,SE,10.4,-,N/A,,Clear,130,2013-08-23 12:52:00
8:52 AM,69.1,64.0,84,29.96,10.0,SE,10.4,-,N/A,,Scattered Clouds,140,2013-08-23 13:52:00
9:01 AM,69.8,64.4,83,29.98,10.0,SSE,10.4,-,N/A,,Mostly Cloudy,150,2013-08-23 14:01:00
9:41 AM,71.6,66.2,83,29.97,10.0,SSE,13.8,-,N/A,,Scattered Clouds,160,2013-08-23 14:41:00
9:52 AM,73.0,66.9,81,29.94,10.0,SSE,13.8,-,N/A,,Clear,150,2013-08-23 14:52:00
10:52 AM,78.1,68.0,71,29.92,10.0,SE,19.6,25.3,N/A,,Clear,140,2013-08-23 15:52:00
11:52 AM,81.0,66.0,60,29.90,10.0,South,16.1,25.3,N/A,,Partly Cloudy,170,2013-08-23 16:52:00
12:52 PM,84.0,64.9,53,29.87,10.0,SSE,19.6,27.6,N/A,,Clear,150,2013-08-23 17:52:00
1:52 PM,87.1,66.9,51,29.85,10.0,SE,20.7,25.3,N/A,,Clear,140,2013-08-23 18:52:00
2:52 PM,87.1,66.0,49,29.83,10.0,SE,19.6,-,N/A,,Clear,140,2013-08-23 19:52:00
3:52 PM,88.0,66.0,48,29.81,10.0,SSE,17.3,26.5,N/A,,Clear,150,2013-08-23 20:52:00
4:52 PM,88.0,66.0,48,29.79,10.0,SSE,19.6,27.6,N/A,,Clear,160,2013-08-23 21:52:00
5:52 PM,84.0,66.0,55,29.80,10.0,South,20.7,27.6,N/A,,Clear,170,2013-08-23 22:52:00
6:52 PM,82.9,66.0,56,29.78,10.0,South,13.8,-,N/A,,Clear,170,2013-08-23 23:52:00
7:52 PM,81.0,66.9,62,29.77,10.0,SSE,11.5,-,N/A,,Clear,150,2013-08-24 00:52:00
8:52 PM,77.0,68.0,74,29.77,10.0,SE,11.5,-,N/A,,Clear,140,2013-08-24 01:52:00
9:52 PM,77.0,68.0,74,29.78,10.0,SE,9.2,-,N/A,,Clear,140,2013-08-24 02:52:00
10:52 PM,75.9,68.0,76,29.77,10.0,SE,11.5,-,N/A,,Clear,140,2013-08-24 03:52:00
11:52 PM,75.9,68.0,76,29.76,10.0,SE,12.7,-,N/A,,Clear,140,2013-08-24 04:52:00